Powrót do katalogu

STARLINK-34963

AktywnyŁącznośćSSO
NORAD 65242·PAYLOAD·🇺🇸 United States

Wystrzelony Aug 18, 2025 z Vandenberg Space Force Base

Loading…

Następne Przeloty (najbliższe 24 godziny)

TLE

ŚwieżeSource: CelesTrak SupGP

Epoka: Sep 15, 2026, 04:06 UTC

1 65242C 25179H   26258.17131944 -.00027494  00000+0 -85373-3 0  2580
2 65242  97.2837 297.6044 0001097  87.5782  76.7774 15.33444058    19

Śledź STARLINK-34963 w czasie rzeczywistym z AllMySat

Download on the App Store